SES-14 (43175 NORAD) Tracking and Keplerian Element Data

This shows tracking and keplerian element data for the satellite.

Feedback or suggestion? Click here.




ElementValue
Catalog43175
NameSES-14
Epoch Orbit46
Epoch Day52.84653094
Epoch Year2018
RAAN222.5117
Inclination17.4428
Eccentricity0.7085608
Argument of Perigee245.7923
Mean Anonmoly278.3568
Mean Motion1.51673111
Decay Rate-3.1E-07
L11 43175U 18012B 18052.84653094 -.00000031 00000-0 00000-0 0 9992
L22 43175 17.4428 222.5117 7085608 245.7923 278.3568 1.51673111 469

Live tracking and technical data element details for SES-14 (NORAD 43175). SES-14 can be tracked NOW for your location showing map with azimuth and elevation plus other details from your city location.

Track the satellite on the map from your city or location and see movement details for azimuth, elevation, latitude, longitude, range, height, and movement on the map or in text.







IsCatalogInMostPopularTable: catalog: 43175, numindb: 125
Update: records affected: 1



GetName: 43175 SES-14

Hit Count: updated at: Wed, 14 Nov 2018 11:49:39 GMT